Theta_e
335 322 320 319 315 315 314 311 311 313 313 313 312 312 312 311 311 311 311 311 311 313 315 316 317 317 317 320 323 319 314 312 315 323 336 342 343 343 343 343 343 341 341
336 322 320 319 316 315 315 312 311 313 314 314 314 313 313 313 313 313 313 313 314 316 318 320 322 324 326 327 324 324 326 326 322 314 316 332 341 343 342 342 342 345 341
336 322 320 320 317 316 315 313 311 313 315 315 315 315 315 315 315 315 315 316 319 323 323 321 322 323 327 332 332 329 328 328 328 327 320 314 330 341 343 341 342 344 345
327 323 321 320 317 317 316 313 312 313 315 316 316 316 316 317 317 316 317 319 323 330 330 331 333 334 334 334 335 335 333 331 329 330 323 313 312 330 326 340 340 341 346
328 324 321 319 317 317 317 314 312 313 316 317 317 317 318 318 319 319 320 322 328 333 334 335 336 336 336 336 336 337 336 333 332 331 325 315 318 323 325 331 341 340 341
329 324 322 320 318 318 317 315 313 313 315 317 318 318 318 319 319 320 322 324 328 335 337 338 338 339 338 338 335 337 338 336 335 333 329 326 329 327 335 330 341 341 340
332 325 323 321 318 317 318 316 314 314 315 317 318 319 318 319 320 321 323 326 329 335 337 339 339 339 338 337 336 335 335 336 335 331 331 330 332 333 336 339 338 340 340
335 330 325 322 319 318 318 317 316 314 315 316 318 319 319 320 321 322 323 326 331 337 339 339 338 336 335 335 334 334 334 335 336 331 329 332 334 335 334 332 329 332 340
336 336 330 324 320 319 319 318 317 315 315 316 318 319 320 321 322 323 323 327 333 337 338 334 331 330 328 328 330 331 332 334 335 331 328 329 334 335 334 332 329 328 328
337 337 336 331 322 319 318 318 319 317 315 316 317 319 321 322 324 324 322 326 329 330 331 328 328 329 328 326 325 331 333 335 336 333 330 325 331 334 336 332 330 328 326
340 338 338 336 329 321 320 319 319 319 317 316 317 319 321 324 325 326 323 326 331 332 333 332 331 330 328 325 325 330 333 333 332 332 330 327 324 330 334 333 331 328 324
338 340 340 338 336 330 324 323 320 319 319 317 318 319 321 324 326 326 324 331 334 335 335 333 331 329 324 324 326 329 331 331 331 330 328 326 325 330 335 333 331 329 324
329 337 340 339 338 338 335 328 329 325 322 321 321 320 321 324 327 327 328 334 334 335 336 334 331 330 328 328 329 328 328 329 330 329 328 326 329 333 334 332 330 330 329
329 329 333 338 339 338 340 335 334 331 326 327 327 324 323 326 327 327 333 334 334 334 334 334 331 331 331 330 331 331 331 330 331 331 331 331 328 330 332 332 332 331 329
328 328 328 334 339 339 341 339 339 336 332 329 331 328 325 327 327 331 337 336 335 335 335 334 332 331 332 331 331 331 331 330 330 330 331 332 331 330 332 331 332 331 328
329 329 327 333 337 341 341 340 340 340 338 335 332 329 328 327 327 335 338 336 333 334 334 333 332 332 331 331 331 330 328 329 330 330 329 331 331 330 332 331 331 331 331
329 329 328 330 337 341 342 342 342 343 341 338 335 332 330 329 329 337 338 335 335 336 334 333 332 332 331 330 330 330 329 329 329 329 329 330 331 330 331 330 330 330 332
329 329 329 329 334 340 344 344 344 344 343 342 340 338 339 336 335 339 337 335 336 335 334 333 333 331 331 331 331 330 329 328 329 329 329 331 331 331 331 330 329 328 329
329 330 328 329 333 337 343 344 344 344 343 342 341 341 340 339 339 340 335 335 335 335 334 334 334 333 331 331 331 330 330 329 328 329 329 330 330 330 330 329 328 327 328
329 330 328 330 335 338 343 344 344 344 344 343 343 342 341 342 341 336 334 334 334 334 334 334 334 333 331 331 330 329 329 328 328 327 329 329 329 330 330 330 331 328 322
328 327 328 333 341 341 344 347 345 344 344 342 341 339 339 338 333 333 335 334 334 334 334 332 331 331 331 330 329 328 328 328 328 327 329 329 330 329 329 330 329 330 324
330 331 333 335 339 344 345 344 345 342 338 337 336 335 334 333 334 335 334 335 336 334 332 331 330 330 329 329 327 325 325 326 327 327 328 330 329 329 329 330 327 329 330
334 336 337 338 344 347 347 346 344 341 338 336 334 334 333 334 335 335 335 334 332 332 331 330 330 329 328 328 328 326 325 324 322 326 327 329 329 329 329 329 327 327 330
337 341 345 347 348 348 348 346 343 337 335 335 334 334 334 336 336 334 333 332 331 331 330 330 330 329 329 327 327 327 325 325 324 323 326 327 328 329 329 329 329 329 330
342 346 349 349 349 348 347 346 343 339 337 335 334 333 334 334 334 333 332 332 331 331 331 330 330 330 329 328 327 327 327 327 326 323 322 323 327 328 328 329 329 329 329
341 345 348 348 348 347 346 344 341 336 335 334 334 334 335 334 334 333 333 332 330 329 330 330 330 330 329 328 327 327 327 325 324 323 323 320 323 328 329 328 328 328 329
Wind_Speed
21 33 31 27 23 20 19 19 18 17 15 14 13 12 11 9 8 8 8 7 6 5 4 3 2 1 1 2 2 2 5 6 6 4 4 2 3 4 5 6 9 11 12
32 36 33 29 25 21 20 20 19 18 16 14 13 12 11 10 8 7 7 6 6 6 5 4 3 1 1 2 2 3 4 5 5 7 7 5 3 4 6 8 8 9 10
32 37 34 30 26 22 21 20 20 18 17 15 14 13 12 10 9 7 6 6 6 6 5 4 3 2 2 4 3 3 4 6 6 6 6 8 5 4 4 7 9 9 11
33 36 35 31 26 23 22 21 20 19 17 15 13 12 11 11 9 9 7 7 7 7 6 5 4 4 5 6 6 5 5 5 6 7 8 7 8 6 3 7 9 9 11
31 35 34 32 29 26 25 24 23 22 19 17 15 14 12 12 11 9 8 8 9 9 8 7 7 7 8 9 9 7 7 6 6 7 8 6 5 5 6 10 11 11 12
28 34 34 34 33 31 29 27 26 24 23 20 18 16 15 14 13 11 10 10 10 10 10 10 11 12 11 11 11 11 11 9 8 9 7 5 5 6 4 10 12 12 13
29 35 35 35 35 33 31 30 29 28 26 24 22 19 18 16 14 13 12 11 11 12 12 11 12 13 13 13 13 14 12 12 11 10 8 8 6 8 8 10 9 9 13
29 34 36 36 36 36 34 33 32 30 29 27 25 23 20 18 15 13 13 12 12 13 13 12 13 14 13 13 13 14 15 14 13 14 12 10 8 7 12 13 10 8 9
30 31 35 38 38 38 37 36 34 33 31 30 28 25 22 19 17 15 13 12 13 13 14 14 14 14 14 15 15 16 16 16 16 17 14 13 9 4 11 15 11 9 9
33 33 35 36 41 41 40 38 37 36 34 33 31 28 25 22 19 17 14 13 13 13 12 12 13 13 13 13 15 16 15 15 17 18 17 15 14 8 13 15 14 11 10
32 36 38 40 41 44 43 42 39 37 36 35 33 30 27 26 23 20 16 13 14 13 13 13 12 12 12 12 13 13 15 17 19 20 19 17 16 16 14 19 16 12 10
33 40 39 40 41 42 44 42 42 40 39 39 37 35 32 29 25 20 17 14 16 15 15 14 11 10 9 10 12 12 15 17 20 21 21 20 17 14 15 18 19 14 11
20 32 37 39 42 44 44 44 43 43 42 42 40 38 34 30 26 21 18 16 15 16 19 16 13 13 11 9 7 7 10 15 18 19 18 18 18 13 16 16 17 15 13
19 19 26 38 44 46 43 45 43 44 45 45 44 40 35 32 27 22 20 17 18 18 20 19 16 15 15 12 11 10 12 12 13 15 15 14 14 18 20 20 18 16 14
23 23 24 33 42 45 45 45 42 44 45 46 43 41 36 33 27 22 21 18 17 19 19 18 18 17 17 16 15 12 13 13 14 12 14 15 16 17 18 21 19 16 14
30 28 23 31 38 42 45 47 47 43 43 42 42 40 38 33 26 24 21 20 19 17 16 14 17 18 17 18 17 16 18 15 14 14 15 12 16 13 18 19 18 16 15
28 34 24 28 35 39 43 46 45 43 40 39 37 35 35 31 28 26 24 21 19 18 17 15 13 14 17 17 18 17 16 16 16 15 14 13 10 15 20 19 17 16 17
25 22 27 27 30 36 40 43 44 41 39 37 34 31 28 29 28 27 23 20 17 14 15 16 17 17 18 20 19 18 18 17 18 14 13 14 13 16 20 19 18 17 18
24 23 27 26 30 35 38 39 38 37 35 33 31 30 27 27 27 29 23 18 18 18 17 17 18 18 21 21 20 18 16 17 16 16 13 16 15 20 20 18 17 15 19
25 30 28 23 30 32 33 31 33 31 30 29 28 27 27 27 27 25 21 15 15 18 18 19 20 19 20 21 19 15 16 16 15 16 13 15 17 19 19 16 16 16 17
20 25 23 22 29 30 31 30 29 29 28 24 26 25 21 25 25 25 20 14 17 20 22 20 20 21 22 17 7 9 11 14 15 16 14 14 17 17 20 15 15 17 17
22 19 19 24 29 32 31 29 25 31 27 27 23 22 24 23 25 23 16 16 18 17 17 15 14 16 17 16 7 3 1 4 15 20 18 16 16 17 16 18 17 16 17
20 23 23 26 29 29 28 28 22 24 23 18 21 20 21 22 24 19 16 14 11 12 13 12 11 13 10 11 16 5 2 4 1 7 21 20 16 15 13 15 16 18 16
21 20 20 22 28 28 28 29 30 21 20 16 20 17 19 22 21 18 14 11 9 10 9 8 7 9 10 9 9 17 7 3 2 2 4 18 17 14 11 12 17 16 14
24 23 23 24 26 28 29 29 29 25 20 16 15 15 15 18 16 11 9 8 7 8 7 7 7 8 10 10 11 6 15 13 5 2 1 1 12 12 9 9 12 16 15
25 26 27 28 28 28 26 27 27 23 17 19 18 18 18 15 10 9 7 7 7 6 7 7 7 9 10 11 12 13 10 4 6 4 1 1 4 9 9 11 12 16 18
Wind_Direction
191 179 173 172 169 162 152 147 143 140 138 135 133 132 133 133 132 132 136 141 140 137 133 130 118 108 289 306 320 297 276 257 242 237 240 218 160 170 185 181 169 153 145
183 181 175 176 172 166 160 156 153 151 148 145 143 142 140 139 137 140 140 141 148 154 158 160 159 172 248 267 280 288 298 296 284 254 244 240 214 184 188 191 198 180 155
176 178 176 178 175 170 167 163 161 160 157 156 154 153 152 149 148 151 150 155 163 170 173 176 184 208 249 263 261 273 280 292 298 288 266 246 223 204 189 212 202 196 177
175 177 178 180 179 176 174 172 170 168 167 165 162 161 160 157 160 165 168 175 183 189 192 198 215 233 252 259 254 253 261 271 281 290 283 260 223 205 207 226 219 206 192
176 181 181 183 182 183 183 179 177 177 177 175 174 175 175 173 175 178 181 186 195 201 207 219 233 239 247 253 253 250 251 258 265 275 284 267 230 240 260 238 219 214 203
182 186 187 187 186 188 188 185 184 184 184 185 185 184 187 187 186 187 190 197 202 207 215 228 238 241 244 249 256 254 251 254 261 269 274 237 271 279 282 195 209 213 209
184 191 195 193 190 192 193 192 190 190 191 191 193 193 196 196 194 193 196 205 210 215 219 230 241 245 247 247 250 252 253 243 250 259 267 250 279 314 208 199 198 207 212
189 192 199 198 197 197 197 197 196 196 196 196 198 199 201 202 202 202 205 210 215 221 228 239 245 247 246 246 248 245 243 245 250 257 253 250 262 295 208 210 203 200 206
193 196 200 203 203 203 202 201 201 200 202 202 203 203 205 206 207 210 214 218 222 228 235 248 248 251 251 252 250 248 250 249 246 250 252 249 245 234 216 216 207 233 219
199 204 204 204 207 206 207 207 205 204 205 207 207 206 207 209 212 215 222 228 229 234 234 247 250 255 258 258 255 250 248 245 246 252 254 247 240 235 230 219 227 237 233
208 209 207 203 206 210 211 210 209 210 209 211 211 209 209 210 213 217 226 237 237 239 241 242 253 260 258 260 253 250 245 243 247 251 254 251 251 238 238 221 222 224 220
204 211 211 210 209 211 212 214 212 211 212 215 214 211 210 213 216 220 230 237 243 248 248 247 254 258 252 263 262 250 246 246 248 252 255 254 253 242 232 219 214 219 213
213 210 216 216 213 215 213 214 214 214 215 218 218 215 213 214 216 220 230 231 239 245 247 245 245 245 245 254 257 243 247 258 259 254 259 252 244 255 231 215 208 219 213
239 224 215 217 215 218 214 214 214 213 216 219 220 217 214 215 215 219 224 229 238 248 250 244 245 248 247 245 244 249 255 266 267 255 257 258 248 249 237 223 219 212 217
243 245 227 216 217 217 212 213 214 216 219 220 221 220 216 217 214 216 222 231 239 243 244 242 242 246 250 240 232 247 255 256 260 258 260 258 263 255 227 221 217 224 212
249 245 235 217 214 213 212 215 217 219 221 220 223 225 220 218 214 214 216 224 242 248 237 230 234 240 247 234 232 241 259 257 249 254 251 260 251 236 218 220 219 223 219
259 259 235 217 213 213 215 217 215 218 217 218 221 221 220 218 213 211 218 227 236 234 224 220 227 230 229 227 237 249 252 258 256 256 251 242 236 223 221 224 224 226 225
259 261 222 218 210 213 213 215 213 214 217 218 216 216 214 211 207 207 217 219 223 224 227 237 242 241 237 238 248 252 256 259 259 253 247 232 229 223 214 223 230 236 229
254 225 220 222 214 216 215 212 208 210 213 215 214 213 210 207 204 212 216 220 230 238 246 250 240 248 255 247 247 252 254 251 253 250 242 228 221 221 218 222 226 233 223
235 225 226 222 214 213 209 206 204 207 210 213 210 207 210 204 196 215 218 230 235 238 245 246 251 255 249 249 241 242 251 248 241 246 242 228 221 224 220 219 227 226 218
243 236 222 207 207 204 194 179 179 183 186 182 181 177 188 193 207 209 216 230 232 237 244 263 270 260 244 238 238 238 241 233 241 246 243 231 221 222 223 225 228 228 224
217 218 208 203 200 201 190 183 176 167 156 164 174 186 193 204 207 207 221 233 235 241 263 271 269 259 253 222 189 136 225 256 242 245 240 233 222 219 218 221 230 231 230
194 196 197 196 192 188 181 168 155 155 159 158 173 185 200 205 206 210 215 228 242 257 269 273 267 246 239 206 205 154 137 222 215 237 233 230 227 221 230 230 229 236 243
189 186 177 177 178 175 172 163 158 154 157 181 189 190 198 200 198 203 214 223 249 268 260 262 259 237 223 206 212 219 220 142 170 335 232 225 228 232 243 239 230 220 228
164 155 158 162 163 161 161 164 165 168 172 181 192 201 196 185 194 203 204 234 258 251 248 252 239 229 225 219 209 192 230 239 228 147 277 237 211 224 224 204 218 210 216
147 143 147 149 154 155 158 164 165 163 168 161 156 162 164 169 185 219 227 231 224 242 238 236 240 234 230 229 228 225 211 178 188 165 168 253 162 161 167 193 203 214 220